This demonstration page uses our WeatherBlox Daily Observations layout. Learn more.

Left ArrowRight Arrow

36.17497, -115.13722

Hourly Observations for April 1, 2020

Temp ( °F °C ) Dew Point ( °F °C ) Humidity (%) Winds ( mph kmh ) Pressure ( in mb ) Visibility ( mi km ) Precip ( " mm )
12:53 am 00:53 Clear 62 16.7 33 0.6 34 34 N 3 6 29.81 1010 10 16 N/A
1:53 am 01:53 Clear 59 15 33 0.6 38 38 N 7 11 29.80 1009 10 16 N/A
2:53 am 02:53 Clear 58 14.4 33 0.6 39 39 N 8 13 29.79 1009 10 16 N/A
3:53 am 03:53 Clear 57 13.9 33 0.6 41 41 N 7 11 29.78 1009 10 16 N/A
4:53 am 04:53 Clear 56 13.3 33 0.6 42 42 NNW 7 11 29.77 1008 10 16 N/A
5:53 am 05:53 Clear 55 12.8 33 0.6 44 44 NW 6 9 29.78 1008 10 16 N/A
6:53 am 06:53 Sunny 55 12.8 34 1.1 45 45 WNW 6 9 29.78 1009 10 16 N/A
7:53 am 07:53 Sunny 60 15.6 35 1.7 39 39 NNW 3 6 29.80 1009 10 16 N/A
8:53 am 08:53 Sunny 65 18.3 33 0.6 31 31 NNE 5 7 29.79 1009 10 16 N/A
9:53 am 09:53 Sunny 66 18.9 34 1.1 30 30 N N/A 29.79 1009 10 16 N/A
10:53 am 10:53 Sunny 69 20.6 33 0.6 26 26 ENE 3 6 29.78 1009 10 16 N/A
11:53 am 11:53 Sunny 72 22.2 36 2.2 27 27 SE 6 9 29.75 1008 10 16 N/A
12:53 pm 12:53 Sunny 74 23.3 36 2.2 25 25 SE 5 7 29.71 1006 10 16 N/A
1:53 pm 13:53 Sunny 77 25 36 2.2 23 23 ESE 12 19 29.68 1005 10 16 N/A
2:53 pm 14:53 Sunny 79 26.1 36 2.2 21 21 SE 7 11 29.64 1004 10 16 N/A
3:39 pm 15:39 Mostly Sunny 82 27.8 32 undefined 16 16 SW 9 15 29.48 998 10 16 N/A
3:53 pm 15:53 Mostly Sunny 82 27.8 31 -0.6 16 16 S 15 24 29.60 1002 10 16 N/A
4:53 pm 16:53 Sunny 82 27.8 30 -1.1 15 15 SW 22 35 29.59 1002 10 16 N/A
5:53 pm 17:53 Sunny 81 27.2 31 -0.6 16 16 WSW 16 26 29.57 1002 10 16 N/A
6:53 pm 18:53 Sunny 79 26.1 28 -2.2 15 15 SSW 15 24 29.56 1001 10 16 N/A
7:53 pm 19:53 Clear 76 24.4 26 -3.3 16 16 S 16 26 29.56 1001 10 16 N/A
8:53 pm 20:53 Clear 74 23.3 26 -3.3 17 17 SSW 15 24 29.58 1002 10 16 N/A
9:53 pm 21:53 Clear 71 21.7 27 -2.8 19 19 S 15 24 29.60 1002 10 16 N/A
10:53 pm 22:53 Clear 70 21.1 27 -2.8 20 20 SW 17 28 29.58 1002 10 16 N/A
11:53 pm 23:53 Clear 69 20.6 26 -3.3 20 20 SW 17 28 29.58 1002 10 16 N/A

Powered by AerisWeather